The Dalles, WA

3:28 PM PST on December 14, 2019 (GMT -0800)
Columbia Gorge Regional-The Dalles

Weather History for KDLS - October, 2019

Change the Weather History Date:

Wednesday, October 2, 2019

  Actual Average Record
Temperature  
Mean Temperature 47 °F -  
Max Temperature 61 °F 75 °F 89 °F (1952)
Min Temperature 33 °F 48 °F 29 °F (1950)
Degree Days  
Heating Degree Days 18    
Moisture  
Dew Point 34 °F    
Average Humidity 62    
Maximum Humidity 85    
Minimum Humidity 35    
Precipitation  
Precipitation 0.00 in - - ()
Sea Level Pressure  
Sea Level Pressure 30.10 in    
Wind  
Wind Speed 4 mph (ENE)    
Max Wind Speed 10 mph    
Max Gust Speed -    
Visibility 10 miles    
Events      
Averages and records for this station are not official NWS values.
T = Trace of Precipitation, MM = Missing Value Source: NWS Daily Summary

Daily Weather History Graph

Daily Weather History Graph

Search for Another Location

Airport or City:

Astronomy

Oct. 02, 2019 Rise Set
Actual Time 7:04 AM PDT 6:43 PM PDT
Civil Twilight 6:34 AM PDT 7:12 PM PDT
Nautical Twilight 6:00 AM PDT 7:47 PM PDT
Astronomical Twilight 5:25 AM PDT 8:21 PM PDT
Moon 11:48 AM PDT (10/2) 9:27 PM PDT (10/2)
Length of Visible Light 12h 38m
Length of Day
11h 39m
Waxing Crescent, 21% of the Moon is Illuminated
Oct 2
Waxing Crescent
Oct 5
First Quarter
Oct 13
Full
Oct 21
Last Quarter
Oct 27
New

Hourly Weather History & Observations

Time (PDT) Temp. Windchill Dew Point Humidity Pressure Visibility Wind Dir Wind Speed Gust Speed Precip Events Conditions
12:53 AM 39.0 °F 35.7 °F 32.0 °F 76% 30.16 in 10.0 mi East 4.6 mph - N/A   Clear
1:53 AM 39.0 °F 36.8 °F 32.0 °F 76% 30.17 in 10.0 mi East 3.5 mph - N/A   Clear
2:53 AM 37.0 °F 34.5 °F 30.9 °F 79% 30.17 in 10.0 mi ESE 3.5 mph - N/A   Clear
3:53 AM 36.0 °F - 30.9 °F 82% 30.17 in 10.0 mi Calm Calm - N/A   Clear
4:53 AM 35.1 °F - 30.9 °F 85% 30.17 in 10.0 mi Calm Calm - N/A   Clear
5:53 AM 33.1 °F 28.7 °F 28.9 °F 85% 30.18 in 10.0 mi ESE 4.6 mph - N/A   Clear
6:53 AM 34.0 °F 31.0 °F 30.0 °F 85% 30.18 in 10.0 mi East 3.5 mph - N/A   Clear
7:53 AM 34.0 °F - 30.0 °F 85% 30.19 in 10.0 mi Calm Calm - N/A   Clear
8:53 AM 39.9 °F - 35.1 °F 83% 30.19 in 10.0 mi Calm Calm - N/A   Clear
9:53 AM 44.1 °F - 36.0 °F 73% 30.18 in 10.0 mi Calm Calm - N/A   Clear
10:53 AM 48.0 °F - 37.0 °F 66% 30.17 in 10.0 mi Calm Calm - N/A   Clear
11:53 AM 55.0 °F - 34.0 °F 45% 30.13 in 10.0 mi East 5.8 mph - N/A   Clear
12:53 PM 59.0 °F - 34.0 °F 39% 30.10 in 10.0 mi NE 8.1 mph - N/A   Clear
1:53 PM 61.0 °F - 33.1 °F 35% 30.07 in 10.0 mi ENE 10.4 mph - N/A   Clear
2:53 PM 61.0 °F - 33.1 °F 35% 30.05 in 10.0 mi NE 9.2 mph - N/A   Clear
3:53 PM 61.0 °F - 34.0 °F 36% 30.04 in 10.0 mi NE 6.9 mph - N/A   Clear
4:53 PM 61.0 °F - 33.1 °F 35% 30.03 in 10.0 mi NE 4.6 mph - N/A   Clear
5:53 PM 60.1 °F - 36.0 °F 41% 30.02 in 10.0 mi Calm Calm - N/A   Clear
6:53 PM 57.0 °F - 39.9 °F 53% 30.01 in 10.0 mi Calm Calm - N/A   Scattered Clouds
7:53 PM 55.0 °F - 39.0 °F 55% 30.02 in 10.0 mi WSW 5.8 mph - N/A   Mostly Cloudy
8:53 PM 54.0 °F - 37.9 °F 55% 30.01 in 10.0 mi NNE 8.1 mph - N/A   Overcast
9:53 PM 53.1 °F - 39.0 °F 59% 30.01 in 10.0 mi West 4.6 mph - N/A   Overcast
10:53 PM 53.1 °F - 37.9 °F 57% 29.99 in 10.0 mi North 4.6 mph - N/A   Overcast
11:53 PM 52.0 °F - 39.0 °F 61% 30.01 in 10.0 mi Calm Calm - N/A   Mostly Cloudy